Flag for France Weather past 2 weeks in Saint-Denis, France

Now
59 °F

Fog.


Feels Like: 59 °F
Forecast: 57 / 74 °F
Wind: No wind

Location: Paris Le Bourget Airport

Current Time: Oct 1, 2014 at 2:52:03 AM

Latest Report: Oct 1, 2014 at 2:00 AM


Visibility: 3 mi

Pressure: 30.30 "Hg

Humidity: 94%

Dew point: 57 °F

Location of Saint-DenisLocation

Historic Weather in Saint-Denis — Graph

°F

Saint-Denis temperature yesterday

Maximum temperature yesterday: 73 °F (at 2:30 PM)
Minimum temperature yesterday: 54 °F (at 8:30 AM)
Average temperature yesterday: 64 °F

Past Weeks' High & Low Weather Summary

 TemperatureHumidityPressure
High81 °F (Sep 18, 2:30 PM)100% (Sep 16, 7:30 AM)30.33 "Hg (Sep 16, 7:30 AM)
Low45 °F (Sep 24, 8:00 AM)40% (Sep 26, 3:00 PM)29.74 "Hg (Sep 17, 3:30 PM)
Average62 °F79%30.07 "Hg
* Reported Sep 16 1:00 AM — Oct 1 1:30 AM, Saint-Denis, Weather by CustomWeather, © 2014

Note: Actual official high and low records may vary slightly from our data, if they occured in-between our weather recording intervals... More about our weather records

Advertising

Saint-Denis weather history for previous 24 hours

 ConditionsComfort  
Time TempWeatherWind HumidityBarometerVisibility
1:30 AM
Oct 1
59 °FFog.No wind94%30.30 "Hg3 mi
1:00 AM59 °FClear.2 mph94%30.30 "Hg4 mi
12:30 AM59 °FClear.3 mph100%30.30 "Hg4 mi
12:00 AM61 °FClear.3 mph94%30.30 "Hg4 mi
11:30 PM
Sep 30
61 °FClear.3 mph94%30.30 "Hg4 mi
11:00 PM63 °FClear.2 mph88%30.30 "Hg6 mi
10:30 PM64 °FPassing clouds.3 mph88%30.30 "HgN/A
10:00 PM64 °FPassing clouds.2 mph88%30.27 "HgN/A
9:30 PM66 °FMostly cloudy.2 mph83%30.27 "HgN/A
9:00 PM66 °FOvercast.5 mph83%30.27 "HgN/A
8:30 PM66 °FClear.3 mph83%30.27 "HgN/A
8:00 PM68 °FPassing clouds.No wind73%30.27 "HgN/A
7:30 PM70 °FBroken clouds.2 mph73%30.27 "HgN/A
7:00 PM70 °FPassing clouds.2 mph69%30.27 "HgN/A
6:30 PM72 °FScattered clouds.6 mph61%30.27 "HgN/A
6:00 PM73 °FScattered clouds.2 mph57%30.27 "HgN/A
5:30 PM72 °FClear.6 mph65%30.27 "HgN/A
5:00 PM72 °FPartly sunny.6 mph65%30.27 "HgN/A
4:30 PM73 °FClear.6 mph61%30.27 "HgN/A
4:00 PM73 °FClear.6 mph61%30.27 "HgN/A
3:30 PM73 °FScattered clouds.6 mph61%30.27 "HgN/A
3:00 PM72 °FBroken clouds.3 mph69%30.27 "HgN/A
2:30 PM73 °FPassing clouds.5 mph61%30.27 "HgN/A
2:00 PM72 °FPartly sunny.2 mph65%30.30 "HgN/A
1:30 PM72 °FPartly sunny.5 mph69%30.30 "HgN/A
1:00 PM70 °FPassing clouds.2 mph73%30.30 "Hg4 mi
12:30 PM68 °FFog.1 mph83%30.30 "Hg3 mi
12:00 PM64 °FFog.3 mph88%30.30 "Hg3 mi
11:30 AM64 °FFog.5 mph94%30.30 "Hg2 mi
11:00 AM63 °FFog.3 mph100%30.30 "Hg2 mi
10:30 AM61 °FFog.2 mph100%30.30 "Hg1 mi
10:00 AM59 °FDense fog.No wind100%30.30 "Hg1 mi
9:30 AM57 °FFog.No wind100%30.27 "Hg0 mi
9:00 AM55 °FFog.No wind100%30.27 "Hg0 mi
8:30 AM54 °FFog.3 mph100%30.27 "Hg0 mi
8:00 AM55 °FFog.3 mph100%30.27 "Hg0 mi
7:30 AM55 °FFog.3 mph100%30.24 "Hg0 mi
7:00 AM55 °FFog.No wind100%30.24 "Hg0 mi
6:30 AM55 °FFog.No wind100%30.24 "Hg0 mi
6:00 AM57 °FFog.No wind100%30.24 "Hg0 mi
5:30 AM57 °FFog.2 mph100%30.24 "Hg0 mi
4:30 AM57 °FFog.No wind94%30.24 "Hg0 mi
4:00 AM57 °FFog.No wind100%30.24 "Hg0 mi
3:30 AM57 °FFog.No wind100%30.24 "Hg0 mi
3:00 AM59 °FPassing clouds.2 mph100%30.24 "Hg1 mi
2:30 AM59 °FFog.1 mph100%30.24 "Hg0 mi
2:00 AM61 °FFog.No wind100%30.24 "Hg1 mi
Weather by CustomWeather, © 2014

See weather overviewHow to use our weather pages